DMSP 5D-2 F11 DEB, 29074

Orbit data source: Space-Track

DMSP 5D-2 F11 DEB, 29074 is space debris in SSO originally from a launch on Thu, 28 Nov 1991 UTC launched from the Air Force Western Test Range (AFWTR). Debris objects in space refer to the collection of defunct objects orbiting the Earth. Examples of debris include non-operational satellites, rocket bodies, and fragments generated from explosions, collisions, or faulty payload assembly.

Loading next visibility...
Identifier
29074, 1991-082BV
Orbit
SSO
Country
Flag of USUS
Related business
Manufacturer
Unknown
Mission
Spacecraft
Bus & Motor
Unknown
Mass
Unknown
Launch date (UTC)
1991-11-28 (35 years ago)
Launch vehicle
Unknown
Launch site
Air Force Western Test Range (AFWTR)
Object type
Payload
Rocket body
Debris
Shape & HBR
Unknown shape, 0.1 m
Radar Cross Section
Small (<0.1 m²)

Expand to show TLE details & history
Last TLE update: 5 days ago

TLE from 5 days ago
0 DMSP 5D-2 F11 DEB
1 29074U 91082BV  26204.21928099  .00007219  00000-0  15299-2 0  9993
2 29074  98.5730 297.2488 0006944  67.3437 292.8496 14.59490458135850
Epoch: 2026-07-23T05:15Z
TLE epoch observation values (Epoch: 2026-07-23T05:15:45.877Z)
Latitude
0.00004°
Longitude
-82.65577°
Altitude
695.888 km
Speed
7.509 km/s
True Right ascension
19h 48m 59s
True Declination
0° 00' 00"
Sunlit
Object was in full shadow at epoch
Visualization orbit readout
Latitude
Unknown
Longitude
Unknown
Altitude
Unknown
Speed
Unknown
Apparent Right ascension
Unknown
Apparent Declination
Unknown
Sunlit
N/A
Visualization observer readout
Local Sidereal Time
15:14:27
Azimuth
Unknown
Elevation
Unknown
Doppler factor
Unknown
Orbital elements
Apogee altitude
696.829 km
Perigee altitude
687.01 km
Semi-major axis
7,070.056 km
Eccentricity
0.00069
Inclination
98.573°
RAAN
297.2488°
Arg. of periapsis
67.3437°
True anomaly
292.77625°
Mean anomaly
292.8496°
Eccentric anomaly
292.81293°
Mean motion
3.65098 °/min
Orbital period
98.6 mins
BSTAR
0.0015299
Loading maneuver chart data...
Computing Atmospheric mass density...

Documentation

Showing up to 5 results
|